Cape Girardeau, MO

4:09 PM CST on December 05, 2019 (GMT -0600)
Cape Girardeau Regional

Weather History for KCGI - November, 2019

Change the Weather History Date:

Tuesday, November 19, 2019

  Actual Average Record
Temperature  
Mean Temperature 49 °F 45 °F  
Max Temperature 63 °F 56 °F 76 °F (1985)
Min Temperature 34 °F 35 °F 20 °F (2000)
Degree Days  
Heating Degree Days 16 20  
Month to date heating degree days 478 303  
Since 1 July heating degree days 739 606  
Cooling Degree Days 0 0  
Month to date cooling degree days 0 0  
Year to date cooling degree days 1775 1451  
Moisture  
Dew Point 38 °F    
Average Humidity 67    
Maximum Humidity 100    
Minimum Humidity 34    
Precipitation  
Precipitation 0.06 in 0.16 in 6.05 in (1991)
Month to date precipitation 2.15 2.71  
Year to date precipitation 57.66 40.83  
Sea Level Pressure  
Sea Level Pressure 29.87 in    
Wind  
Wind Speed 7 mph (WNW)    
Max Wind Speed 22 mph    
Max Gust Speed 32 mph    
Visibility 9 miles    
Events Rain    
T = Trace of Precipitation, MM = Missing Value Source: NWS Daily Summary

Daily Weather History Graph

Daily Weather History Graph

Search for Another Location

Airport or City:

Astronomy

Nov. 19, 2019 Rise Set
Actual Time 6:41 AM CST 4:45 PM CST
Civil Twilight 6:13 AM CST 5:13 PM CST
Nautical Twilight 5:41 AM CST 5:45 PM CST
Astronomical Twilight 5:10 AM CST 6:16 PM CST
Moon 11:39 PM CST (11/19) 12:52 PM CST (11/19)
Length of Visible Light 11h 00m
Length of Day
10h 04m
Waning Gibbous, 51% of the Moon is Illuminated
Nov 19
Waning Gibbous
Nov 19
Last Quarter
Nov 26
New
Dec 4
First Quarter
Dec 11
Full

Hourly Weather History & Observations

Time (CST) Temp. Windchill Dew Point Humidity Pressure Visibility Wind Dir Wind Speed Gust Speed Precip Events Conditions
12:53 AM 46.9 °F - 42.1 °F 83% 29.76 in 6.0 mi Calm Calm - 0.06 in Rain Light Rain
1:53 AM 46.9 °F - 42.1 °F 83% 29.75 in 10.0 mi Calm Calm - 0.00 in   Overcast
2:53 AM 46.9 °F - 42.1 °F 83% 29.74 in 10.0 mi SSE 5.8 mph - N/A   Overcast
3:53 AM 46.9 °F - 42.1 °F 83% 29.74 in 10.0 mi SSW 4.6 mph - N/A   Overcast
4:53 AM 44.1 °F 42.5 °F 39.9 °F 85% 29.74 in 10.0 mi South 3.5 mph - N/A   Partly Cloudy
5:53 AM 39.9 °F 36.7 °F 37.9 °F 93% 29.75 in 9.0 mi South 4.6 mph - N/A   Clear
6:53 AM 37.9 °F 34.4 °F 37.0 °F 97% 29.78 in 4.0 mi West 4.6 mph - N/A   Clear
7:53 AM 44.1 °F 39.5 °F 41.0 °F 89% 29.80 in 7.0 mi West 8.1 mph - N/A   Clear
8:53 AM 48.0 °F - 44.1 °F 86% 29.83 in 10.0 mi West 11.5 mph - N/A   Clear
9:53 AM 53.1 °F - 44.1 °F 71% 29.84 in 10.0 mi WNW 11.5 mph - N/A   Clear
11:53 AM 57.0 °F - 43.0 °F 59% 29.85 in 10.0 mi NNW 12.7 mph - N/A   Clear
12:53 PM 60.1 °F - 39.9 °F 47% 29.86 in 10.0 mi NW 12.7 mph - N/A   Clear
1:53 PM 62.1 °F - 37.0 °F 39% 29.87 in 10.0 mi NW 12.7 mph - N/A   Clear
2:53 PM 62.1 °F - 34.0 °F 35% 29.89 in 10.0 mi NW 19.6 mph 27.6 mph N/A   Clear
3:53 PM 60.1 °F - 34.0 °F 38% 29.92 in 10.0 mi NNW 11.5 mph - N/A   Clear
4:53 PM 53.1 °F - 35.1 °F 50% 29.94 in 6.0 mi North 6.9 mph - N/A   Haze
6:53 PM 44.1 °F - 35.1 °F 71% 29.99 in 10.0 mi Calm Calm - N/A   Clear
7:53 PM 41.0 °F - 35.1 °F 79% 30.00 in 10.0 mi Calm Calm - N/A   Clear
8:53 PM 37.9 °F 34.4 °F 33.1 °F 83% 30.01 in 9.0 mi East 4.6 mph - N/A   Clear
9:53 PM 37.0 °F 34.5 °F 32.0 °F 82% 30.01 in 10.0 mi East 3.5 mph - N/A   Clear
10:53 PM 35.1 °F - 32.0 °F 89% 30.03 in 10.0 mi Calm Calm - N/A   Clear
11:53 PM 36.0 °F - 33.1 °F 89% 30.05 in 10.0 mi Calm Calm - N/A   Clear